STARLETTE 1 07646U 75010A 09007.23959088 -.00000181 00000-0 -31655-4 0 8294 2 07646 049.8287 046.1100 0205621 261.1273 096.6288 13.82270975713423 LAGEOS 1 1 08820U 76039A 09006.47478509 .00000009 00000-0 10000-3 0 7162 2 08820 109.8097 157.0385 0044703 226.3159 133.3689 06.38664507506716 EGP (AJISAI) 1 16908U 86061A 09007.18168727 -.00000083 00000-0 10000-3 0 7984 2 16908 050.0118 294.0451 0011415 166.8817 193.2313 12.44461264687552 LAGEOS 2 1 22195U 92070B 09006.89519292 -.00000009 00000-0 10000-3 0 9283 2 22195 052.6779 332.8076 0137142 282.0316 076.4906 06.47293843383222 STELLA 1 22824U 93061B 09007.00634486 -.00000096 00000-0 -22009-4 0 1709 2 22824 098.4566 320.3691 0007366 059.6183 300.5713 14.27282022796197 WESTPAC 1 25398U 98043E 09006.57170892 -.00000048 00000-0 -33111-5 0 4224 2 25398 098.3434 036.4397 0001315 015.9667 344.1548 14.22673576545035 GRACE 1 1 27391U 02012A 09007.07994202 .00000730 00000-0 21015-4 0 899 2 27391 089.0121 024.4814 0017802 021.9781 338.2260 15.34049810380611 GRACE 2 1 27392U 02012B 09007.07954119 .00000697 00000-0 20002-4 0 902 2 27392 089.0126 024.4946 0018795 023.6317 336.5829 15.34050011380616